Retour au catalogue

STARLINK-37199

ActifCommunicationsVLEO
NORAD 68327·PAYLOAD·🇺🇸 United States

Lancé Mar 22, 2026 depuis Cape Canaveral Space Force Station

Loading…

Prochains Passages (prochaines 24 heures)

TLE

FraisSource: CelesTrak SupGP

Époque: Sep 14, 2026, 23:19 UTC

1 68327C 26059G   26257.97201389 -.00036432  00000+0 -10761-2 0  2572
2 68327  53.1579 187.1979 0001290  90.7672 218.4712 15.34418158    19

Suivez STARLINK-37199 en temps réel avec AllMySat

Download on the App Store